Weather in Mulyanka

Russia / Perm Krai     57°48′22″N   56°22′32″E
temp.,
°C
wind,
m/s
gust,
m/s
humid.,
%
clouds,
%
prec.,
mm/h
press.,
hPa
HPBL,
m
21 january, fri
fri2123:00−8ssw41291100 0.1 1017546
02:00−8ssw4139095 0.0 1017535
05:00−9ssw4139090 0.0 1018525
08:00−10ssw4129168 0.0 1018450
11:00−10ssw4129163 0.0 1020452
14:00−8ssw4119093 0.0 1021473
17:00−10ssw379396 0.0 1022202
20:00−16sse229975 0.0 102425
22 january, sat
sat2223:00−18sse2110070 0.0 102527
02:00−18sse219999 0.0 102618
05:00−20se2110077 0.0 102718
08:00−20se21100100 0.0 102831
11:00−17sse23100100 0.1 102864
14:00−10sse249390 0.0 1028188
17:00−13ese119868 0.0 10299
20:00−17se2110099 0.0 103112
23 january, sun
sun2323:00−14se1210099 0.0 103140
02:00−16se21100100 0.0 103323
05:00−17se219990 0.0 103415
08:00−18se2199100 0.0 103517
11:00−13sse2393100 0.0 103671
14:00−9se2486100 0.0 1036146
17:00−10se1196100 0.0 103811
20:00−11se2196100 0.0 103822
24 january, mon
mon2423:00−11sse1196100 0.0 103915
02:00−11sse1197100 0.0 104012
05:00−9s1193100 0.0 104031
08:00−9sse1197100 0.0 104015
11:00−8s1290100 0.0 104078
14:00−6wsw1380100 0.0 1039240
17:00−8ssw1194100 0.0 103920
20:00−9sw1592100 0.0 1038134
25 january, tue
tue2523:00−8sw2691100 0.1 1037232
02:00−9wsw279486 0.1 1036226
05:00−13sw239879 0.2 103640
08:00−15sw1198100 0.0 103618
11:00−12wsw1291100 0.0 103667
14:00−9wsw1383100 0.0 1035192
17:00−11ssw1196100 0.0 103510
20:00−16sw119788 0.0 103510